Visibility
15.0 15.0 15.0 15.0 15.0 15.0 15.0 15.0 15.0 15.0 15.0 15.0 15.0 15.0 15.0 15.0 15.0 15.0 15.0 15.0 13.6 8.7 13.2 15.0 15.0 15.0 15.0 14.7 14.0 13.3 0.1 6.2 15.0 15.0 15.0 15.0 15.0 15.0 15.0 15.0 15.0 15.0 15.0 15.0 15.0
15.0 15.0 15.0 15.0 15.0 15.0 15.0 15.0 15.0 15.0 15.0 15.0 15.0 15.0 15.0 15.0 15.0 15.0 15.0 15.0 9.0 15.0 15.0 15.0 15.0 15.0 4.5 13.0 14.9 10.2 7.7 15.0 15.0 15.0 15.0 15.0 15.0 15.0 15.0 15.0 15.0 15.0 15.0 15.0 15.0
15.0 15.0 15.0 15.0 15.0 15.0 15.0 15.0 15.0 15.0 15.0 15.0 15.0 15.0 15.0 15.0 15.0 15.0 15.0 15.0 15.0 15.0 15.0 15.0 15.0 12.7 9.4 15.0 15.0 15.0 15.0 15.0 15.0 15.0 15.0 15.0 15.0 15.0 15.0 15.0 15.0 15.0 15.0 14.2 15.0
15.0 15.0 15.0 15.0 15.0 15.0 15.0 15.0 15.0 15.0 15.0 15.0 15.0 15.0 15.0 15.0 15.0 15.0 15.0 15.0 15.0 15.0 15.0 15.0 10.4 12.1 8.8 14.4 15.0 11.4 15.0 15.0 15.0 15.0 15.0 15.0 15.0 15.0 15.0 15.0 15.0 15.0 15.0 15.0 15.0
15.0 15.0 15.0 15.0 15.0 15.0 15.0 15.0 15.0 15.0 15.0 15.0 15.0 15.0 15.0 15.0 15.0 15.0 15.0 15.0 15.0 15.0 15.0 15.0 6.5 5.6 15.0 15.0 15.0 15.0 15.0 14.6 15.0 15.0 15.0 15.0 15.0 15.0 15.0 15.0 15.0 15.0 15.0 15.0 15.0
15.0 15.0 15.0 15.0 15.0 15.0 15.0 15.0 15.0 15.0 15.0 15.0 15.0 15.0 15.0 15.0 15.0 15.0 15.0 15.0 15.0 15.0 15.0 15.0 15.0 10.3 0.1 10.3 13.7 14.4 15.0 15.0 15.0 9.0 15.0 15.0 15.0 15.0 15.0 15.0 15.0 15.0 15.0 15.0 15.0
15.0 15.0 15.0 15.0 15.0 15.0 15.0 15.0 15.0 15.0 15.0 15.0 15.0 15.0 15.0 15.0 15.0 15.0 15.0 15.0 15.0 15.0 15.0 15.0 15.0 15.0 0.2 0.0 15.0 15.0 0.1 15.0 15.0 14.8 4.9 10.1 15.0 15.0 15.0 15.0 15.0 15.0 15.0 15.0 15.0
15.0 15.0 15.0 15.0 15.0 15.0 15.0 15.0 15.0 15.0 15.0 15.0 15.0 15.0 15.0 15.0 15.0 15.0 15.0 15.0 15.0 15.0 15.0 15.0 15.0 15.0 14.2 5.9 0.1 3.5 0.3 0.0 10.1 15.0 15.0 8.2 11.0 15.0 15.0 15.0 15.0 15.0 15.0 15.0 15.0
15.0 15.0 15.0 15.0 15.0 15.0 15.0 15.0 15.0 15.0 15.0 15.0 15.0 15.0 15.0 15.0 15.0 15.0 15.0 15.0 15.0 15.0 15.0 15.0 15.0 15.0 14.1 0.0 0.1 0.0 0.1 0.3 0.1 15.0 15.0 3.8 12.8 15.0 15.0 15.0 15.0 15.0 15.0 15.0 15.0
15.0 15.0 15.0 15.0 15.0 15.0 15.0 15.0 15.0 15.0 15.0 15.0 15.0 15.0 15.0 15.0 15.0 15.0 15.0 15.0 15.0 15.0 15.0 15.0 15.0 1.4 15.0 1.0 0.1 0.1 0.1 0.6 15.0 15.0 15.0 9.6 15.0 15.0 15.0 15.0 15.0 15.0 15.0 15.0 15.0
15.0 15.0 15.0 15.0 15.0 15.0 15.0 15.0 15.0 15.0 15.0 15.0 15.0 15.0 15.0 15.0 15.0 15.0 15.0 15.0 15.0 15.0 1.8 15.0 0.2 1.5 0.3 9.1 0.2 1.6 0.1 0.6 0.1 15.0 15.0 15.0 15.0 15.0 15.0 15.0 15.0 15.0 15.0 15.0 15.0
15.0 15.0 15.0 15.0 15.0 15.0 15.0 15.0 15.0 15.0 15.0 15.0 15.0 15.0 15.0 15.0 15.0 15.0 15.0 15.0 15.0 15.0 15.0 13.7 10.4 7.3 6.1 11.7 9.5 2.3 2.7 1.2 15.0 5.0 0.0 12.9 15.0 15.0 15.0 15.0 15.0 15.0 15.0 15.0 15.0
15.0 15.0 15.0 15.0 15.0 15.0 15.0 15.0 15.0 15.0 15.0 15.0 15.0 15.0 15.0 15.0 15.0 15.0 15.0 15.0 13.7 14.6 9.6 0.5 0.6 8.5 13.8 15.0 0.6 0.1 11.2 15.0 14.5 8.1 6.6 6.1 9.0 15.0 15.0 15.0 15.0 15.0 15.0 15.0 15.0
15.0 15.0 15.0 15.0 15.0 15.0 15.0 15.0 15.0 15.0 15.0 15.0 15.0 15.0 15.0 15.0 15.0 15.0 15.0 15.0 15.0 2.8 3.8 1.1 10.0 1.0 15.0 7.6 2.5 1.1 15.0 15.0 15.0 3.4 0.1 0.1 0.4 15.0 15.0 15.0 15.0 15.0 15.0 15.0 15.0
15.0 15.0 15.0 15.0 15.0 15.0 15.0 15.0 15.0 15.0 15.0 15.0 15.0 15.0 15.0 15.0 15.0 15.0 15.0 15.0 15.0 15.0 0.7 0.6 0.2 0.7 0.2 0.3 0.1 0.3 12.5 15.0 14.6 2.4 0.3 0.1 0.1 15.0 15.0 15.0 15.0 15.0 15.0 15.0 15.0
15.0 15.0 15.0 15.0 15.0 15.0 15.0 15.0 15.0 15.0 15.0 15.0 15.0 15.0 15.0 15.0 15.0 15.0 15.0 15.0 15.0 15.0 15.0 2.9 5.8 0.1 0.1 0.7 0.1 0.0 0.1 0.1 0.1 0.1 0.1 4.3 0.1 0.1 10.0 10.0 14.0 15.0 15.0 15.0 15.0
15.0 15.0 15.0 15.0 15.0 15.0 15.0 15.0 15.0 15.0 15.0 15.0 15.0 15.0 15.0 15.0 15.0 15.0 15.0 15.0 0.2 2.5 11.0 15.0 15.0 10.9 0.6 15.0 15.0 3.9 0.1 0.1 0.1 0.1 0.8 15.0 1.4 0.6 0.1 0.2 0.1 0.1 10.0 15.0 15.0
15.0 15.0 15.0 15.0 15.0 15.0 15.0 15.0 15.0 15.0 15.0 15.0 15.0 15.0 15.0 15.0 15.0 15.0 15.0 15.0 15.0 0.6 1.0 1.1 2.1 15.0 8.5 0.1 0.1 0.4 0.2 0.2 0.2 0.1 8.4 11.5 6.5 8.7 0.1 0.3 15.0 0.1 2.1 15.0 15.0
15.0 15.0 15.0 15.0 15.0 15.0 15.0 14.5 8.7 15.0 15.0 15.0 15.0 15.0 15.0 15.0 15.0 15.0 15.0 15.0 15.0 8.9 0.1 0.3 1.5 15.0 15.0 1.9 1.9 0.4 0.3 0.3 0.7 2.3 5.5 0.5 15.0 3.8 15.0 15.0 13.9 8.6 4.9 0.3 11.4
15.0 15.0 15.0 15.0 15.0 15.0 15.0 15.0 15.0 15.0 15.0 15.0 15.0 15.0 2.7 15.0 11.9 15.0 15.0 15.0 15.0 15.0 5.7 2.3 0.6 15.0 15.0 15.0 15.0 7.7 1.0 0.4 0.4 0.1 3.4 2.0 1.0 0.5 6.8 11.1 0.5 0.2 0.7 0.1 0.0
15.0 15.0 15.0 15.0 15.0 15.0 15.0 15.0 15.0 15.0 15.0 15.0 15.0 7.2 14.9 3.0 5.8 9.0 15.0 15.0 15.0 15.0 15.0 1.1 1.0 14.7 14.3 0.1 0.1 4.4 5.5 0.5 0.4 0.2 0.5 1.7 0.4 0.1 0.2 1.4 0.1 0.1 0.1 0.2 0.2
15.0 15.0 15.0 15.0 15.0 15.0 15.0 15.0 15.0 15.0 15.0 15.0 15.0 14.9 1.4 4.3 1.7 14.8 15.0 15.0 15.0 15.0 0.6 14.8 3.4 14.5 15.0 14.9 1.9 0.4 0.1 0.4 0.3 0.2 0.3 7.4 0.2 0.1 0.2 0.3 0.1 0.1 0.1 0.1 0.4
15.0 15.0 15.0 15.0 15.0 15.0 15.0 15.0 15.0 15.0 15.0 15.0 15.0 15.0 15.0 2.4 0.5 9.8 15.0 15.0 15.0 15.0 3.9 14.2 15.0 15.0 15.0 15.0 14.1 0.6 0.1 0.1 0.1 0.4 0.2 1.4 0.3 0.2 0.1 0.1 0.1 0.1 0.1 0.1 0.1
15.0 15.0 15.0 15.0 15.0 15.0 15.0 15.0 15.0 15.0 15.0 15.0 15.0 15.0 10.3 15.0 15.0 9.9 15.0 15.0 15.0 15.0 15.0 15.0 13.5 15.0 0.4 0.2 0.1 0.2 0.2 0.2 5.7 8.2 2.0 0.1 0.2 0.2 0.1 0.1 0.5 0.2 0.1 0.1 0.1
15.0 15.0 15.0 15.0 15.0 15.0 15.0 15.0 15.0 15.0 15.0 15.0 15.0 15.0 4.7 3.8 15.0 15.0 15.0 15.0 15.0 15.0 15.0 15.0 3.8 9.5 15.0 15.0 6.5 11.5 0.6 1.0 0.4 0.1 0.3 0.1 0.1 0.2 0.1 0.1 0.1 0.1 0.1 0.1 0.3
15.0 15.0 12.4 6.2 15.0 15.0 15.0 15.0 15.0 15.0 15.0 15.0 15.0 15.0 5.9 13.4 15.0 15.0 5.1 13.2 2.3 11.5 8.7 14.9 15.0 15.0 15.0 15.0 15.0 15.0 15.0 15.0 14.9 0.3 0.2 0.2 0.1 0.1 0.1 0.1 0.1 0.2 0.6 0.1 0.1
11.3 15.0 15.0 15.0 14.6 15.0 15.0 15.0 15.0 15.0 15.0 15.0 15.0 5.9 4.2 13.0 15.0 15.0 15.0 15.0 7.8 0.3 1.3 0.8 2.0 12.6 15.0 15.0 15.0 13.6 3.2 1.5 0.3 0.2 0.2 0.1 0.1 0.1 0.1 0.1 0.1 0.1 0.2 0.2 0.1